IN3APK-3 Weather Reports


Display with metric or nautical units.
time (UTC)temp
F
wind
direction
speed
MPH
gust
MPH
rain 1hr
in
rain 24hr
in
rain mn
in
humidity
%
barometer
mb
20260507030807 46 0.0 0.0 0.00 0.00 0.00 73 1005.7
20260507025715 46 0.0 0.0 0.00 0.00 0.00 74 1005.8
20260507024623 45 0.0 0.0 0.00 0.00 0.00 73 1005.7
20260507023531 46 0.0 0.0 0.00 0.00 0.00 73 1005.7
20260507022439 46 0.0 0.0 0.00 0.00 0.00 73 1005.7
20260507021347 46 0.0 0.0 0.00 0.00 0.00 73 1005.8
20260507020254 46 0.0 0.0 0.00 0.00 0.00 73 1005.8
20260507015202 46 0.0 0.0 0.00 0.00 0.00 73 1005.6
20260507014110 46 0.0 0.0 0.00 0.00 0.00 73 1005.6
20260507013018 46 0.0 0.0 0.00 0.00 0.00 73 1005.6
20260507011926 46 0.0 0.0 0.00 0.00 0.00 73 1005.7
20260507010834 46 0.0 0.0 0.00 0.00 0.00 73 1005.7
20260507005741 46 0.0 0.0 0.00 0.00 0.00 73 1005.8
20260507004649 46 0.0 0.0 0.00 0.00 0.00 73 1005.7
20260507003557 46 0.0 0.0 0.00 0.00 0.00 73 1005.8
20260507001412 46 0.0 0.0 0.00 0.00 0.00 73 1005.7
20260507000321 46 0.0 0.0 0.00 0.00 0.00 73 1005.6
20260506235228 46 0.0 0.0 0.00 0.00 0.00 73 1005.6
20260506234135 46 0.0 0.0 0.00 0.00 0.00 73 1005.6
20260506233043 45 0.0 0.0 0.00 0.00 0.00 74 1005.6
20260506231951 45 0.0 0.0 0.00 0.00 0.00 74 1005.7
20260506230859 45 0.0 0.0 0.00 0.00 0.00 74 1005.7
20260506225807 45 0.0 0.0 0.00 0.00 0.00 74 1005.6
20260506224714 44 0.0 0.0 0.00 0.00 0.00 74 1005.7
20260506223622 44 0.0 0.0 0.00 0.00 0.00 74 1005.7
20260506222530 45 0.0 0.0 0.00 0.00 0.00 74 1005.9
20260506221438 45 0.0 0.0 0.00 0.00 0.00 74 1005.7
20260506215254 47 0.0 0.0 0.00 0.00 0.00 73 1005.6
20260506214203 48 0.0 0.0 0.00 0.00 0.00 72 1005.5
20260506213110 48 0.0 0.0 0.00 0.00 0.00 72 1005.7
20260506212019 48 0.0 0.0 0.00 0.00 0.00 72 1005.6
20260506205834 48 0.0 0.0 0.00 0.00 0.00 72 1005.6
20260506204742 48 0.0 0.0 0.00 0.00 0.00 72 1005.5
20260506201505 49 0.0 0.0 0.00 0.00 0.00 73 1005.3
20260506200412 49 0.0 0.0 0.00 0.00 0.00 73 1005.2
20260506195321 49 0.0 0.0 0.00 0.00 0.00 73 1004.8
20260506194228 49 0.0 0.0 0.00 0.00 0.00 73 1004.7
20260506193136 49 0.0 0.0 0.00 0.00 0.00 73 1004.4
20260506192044 49 0.0 0.0 0.00 0.00 0.00 73 1004.2
20260506190952 49 0.0 0.0 0.00 0.00 0.00 73 1004.1
20260506185900 49 0.0 0.0 0.00 0.00 0.00 73 1004.0
20260506184808 49 0.0 0.0 0.00 0.00 0.00 73 1003.8
20260506183715 50 0.0 0.0 0.00 0.00 0.00 73 1003.8
20260506182623 50 0.0 0.0 0.00 0.00 0.00 73 1003.7
20260506181531 50 0.0 0.0 0.00 0.00 0.00 72 1003.7
20260506180439 51 0.0 0.0 0.00 0.00 0.00 72 1003.4
20260506175347 52 0.0 0.0 0.00 0.00 0.00 72 1003.5
20260506174255 52 0.0 0.0 0.00 0.00 0.00 72 1003.4
20260506173204 53 0.0 0.0 0.00 0.00 0.00 71 1003.2
20260506172112 54 0.0 0.0 0.00 0.00 0.00 71 1003.0
20260506171020 54 0.0 0.0 0.00 0.00 0.00 70 1003.1
20260506165928 55 0.0 0.0 0.00 0.00 0.00 71 1002.8
20260506163744 55 0.0 0.0 0.00 0.00 0.00 71 1003.0
20260506162652 55 0.0 0.0 0.00 0.00 0.00 71 1002.9
20260506161600 56 0.0 0.0 0.00 0.00 0.00 71 1002.8
20260506160508 56 0.0 0.0 0.00 0.00 0.00 71 1002.6
20260506155416 57 0.0 0.0 0.00 0.00 0.00 71 1002.7
20260506154325 60 0.0 0.0 0.00 0.00 0.00 68 1002.8
20260506153234 62 0.0 0.0 0.00 0.00 0.00 67 1002.8
20260506152140 60 0.0 0.0 0.00 0.00 0.00 70 1002.8
20260506151049 62 0.0 0.0 0.00 0.00 0.00 66 1002.9
20260506145956 60 0.0 0.0 0.00 0.00 0.00 71 1002.9
20260506144901 54 0.0 0.0 0.00 0.00 0.00 75 1003.1
20260506143808 51 0.0 0.0 0.00 0.00 0.00 75 1003.1
20260506142716 52 0.0 0.0 0.00 0.00 0.00 74 1003.2
20260506141624 52 0.0 0.0 0.00 0.00 0.00 74 1003.1
20260506135440 53 0.0 0.0 0.00 0.00 0.00 73 1003.4
20260506134348 53 0.0 0.0 0.00 0.00 0.00 73 1003.4
20260506133255 52 0.0 0.0 0.00 0.00 0.00 74 1003.6
20260506132203 52 0.0 0.0 0.00 0.00 0.00 73 1003.5
20260506131111 52 0.0 0.0 0.00 0.00 0.00 73 1003.1
20260506130019 51 0.0 0.0 0.00 0.00 0.00 74 1003.5
20260506124926 51 0.0 0.0 0.00 0.00 0.00 73 1003.8
20260506123834 52 0.0 0.0 0.00 0.00 0.00 72 1003.6
20260506122742 53 0.0 0.0 0.00 0.00 0.00 72 1003.6
20260506115506 55 0.0 0.0 0.00 0.00 0.00 69 1003.2
20260506114414 54 0.0 0.0 0.00 0.00 0.00 71 1003.2
20260506113321 53 0.0 0.0 0.00 0.00 0.00 71 1003.3
20260506112229 53 0.0 0.0 0.00 0.00 0.00 70 1003.4
20260506111137 53 0.0 0.0 0.00 0.00 0.00 70 1003.7
20260506104951 50 0.0 0.0 0.00 0.00 0.00 71 1004.2
20260506102807 49 0.0 0.0 0.00 0.00 0.00 71 1004.4
20260506101714 50 0.0 0.0 0.00 0.00 0.00 71 1004.3
20260506100622 50 0.0 0.0 0.00 0.00 0.00 71 1004.3
20260506095530 50 0.0 0.0 0.00 0.00 0.00 71 1004.3
20260506094439 50 0.0 0.0 0.00 0.00 0.00 70 1004.3
20260506093347 51 0.0 0.0 0.00 0.00 0.00 70 1004.2
20260506092255 51 0.0 0.0 0.00 0.00 0.00 69 1004.3
20260506091202 51 0.0 0.0 0.00 0.00 0.00 69 1004.4
20260506090110 51 0.0 0.0 0.00 0.00 0.00 69 1004.5
20260506085018 51 0.0 0.0 0.00 0.00 0.00 69 1004.3
20260506083926 51 0.0 0.0 0.00 0.00 0.00 69 1004.3
20260506082833 51 0.0 0.0 0.00 0.00 0.00 69 1004.4
20260506081741 51 0.0 0.0 0.00 0.00 0.00 69 1004.4
20260506080649 51 0.0 0.0 0.00 0.00 0.00 68 1004.5
20260506072320 52 0.0 0.0 0.00 0.00 0.00 66 1004.4
20260506071228 53 0.0 0.0 0.00 0.00 0.00 66 1004.4
20260506070136 53 0.0 0.0 0.00 0.00 0.00 66 1004.4
20260506051253 50 0.0 0.0 0.00 0.00 0.00 66 1004.7
20260506050201 50 0.0 0.0 0.00 0.00 0.00 66 1004.6
20260506045108 50 0.0 0.0 0.00 0.00 0.00 66 1004.5
20260506044016 50 0.0 0.0 0.00 0.00 0.00 66 1004.3
20260506042923 50 0.0 0.0 0.00 0.00 0.00 66 1004.5
20260506041831 50 0.0 0.0 0.00 0.00 0.00 66 1004.6
20260506040739 49 0.0 0.0 0.00 0.00 0.00 66 1004.6
20260506035646 49 0.0 0.0 0.00 0.00 0.00 66 1004.7
20260506034554 49 0.0 0.0 0.00 0.00 0.00 66 1004.7
20260506033502 49 0.0 0.0 0.00 0.00 0.00 66 1004.9
20260506031317 49 0.0 0.0 0.00 0.00 0.00 66 1005.0